This is the latest recevied weather packets stored in our database for station/object W2GLD-13. If no packets are shown the sender has not sent any weather packets the latest 10 day(s).
| Time | Temp. | Humidity | Pressure | Rain* | Wind** | Luminosity | Snow |
|---|---|---|---|---|---|---|---|
| 1777742106 | 7.22° C | 46% | 1017 hPa | 0 mm | - | - | - |
| 1777741206 | 6.11° C | 48% | 1017.3 hPa | 0 mm | - | - | - |
| 1777740306 | 6.11° C | 48% | 1017.3 hPa | 0 mm | - | - | - |
| 1777739406 | 6.11° C | 48% | 1017.3 hPa | 0 mm | - | - | - |
| 1777738505 | 6.11° C | 48% | 1017.3 hPa | 0 mm | - | - | - |
| 1777737605 | 5.56° C | 50% | 1017.2 hPa | 0 mm | - | - | - |
| 1777736705 | 5.56° C | 50% | 1017.2 hPa | 0 mm | - | - | - |
| 1777735805 | 5.56° C | 50% | 1017.2 hPa | 0 mm | - | - | - |
| 1777734905 | 5.56° C | 50% | 1017.2 hPa | 0 mm | - | - | - |
| 1777734005 | 4.44° C | 59% | 1017.3 hPa | 0 mm | - | - | - |
| 1777733106 | 4.44° C | 59% | 1017.3 hPa | 0 mm | - | - | - |
| 1777732206 | 4.44° C | 59% | 1017.3 hPa | 0 mm | - | - | - |
| 1777731306 | 4.44° C | 59% | 1017.3 hPa | 0 mm | - | - | - |
| 1777730406 | 2.78° C | 69% | 1017.3 hPa | 0 mm | - | - | - |
| 1777729506 | 2.78° C | 69% | 1017.3 hPa | 0 mm | - | - | - |
| 1777728605 | 2.78° C | 69% | 1017.3 hPa | 0 mm | - | - | - |
| 1777727705 | 2.78° C | 69% | 1017.3 hPa | 0 mm | - | - | - |
| 1777726805 | 0.56° C | 79% | 1017.1 hPa | 0 mm | - | - | - |
| 1777725905 | 0.56° C | 79% | 1017.1 hPa | 0 mm | - | - | - |
| 1777725006 | 0.56° C | 79% | 1017.1 hPa | 0 mm | - | - | - |
| 1777724106 | 0.56° C | 79% | 1017.1 hPa | 0 mm | - | - | - |
| 1777723206 | -0.56° C | 85% | 1016.8 hPa | 0 mm | - | - | - |
| 1777722306 | -0.56° C | 85% | 1016.8 hPa | 0 mm | - | - | - |
| 1777721406 | -0.56° C | 85% | 1016.8 hPa | 0 mm | - | - | - |
| 1777720505 | -0.56° C | 85% | 1016.8 hPa | 0 mm | - | - | - |
* Rain latest hour (hover to see other rain measurements)
** Current wind speed in m/s (hover to see current wind gust speed)